Dewpoint
46 46 45 46 46 47 47 46 46 47 47 47 46 47 48 48 49 48 42 43 43 41 37 36 36 35 34 33 40 39 38 36 36 36 29 26 25 23 19 17 19 25 24 21 20 17 16 22 21 14 32 35 38 36
46 46 46 45 46 46 47 47 47 47 47 47 47 47 47 48 49 49 43 42 46 46 38 39 38 37 36 35 37 37 38 42 46 44 45 41 40 27 19 17 20 25 24 24 21 19 41 38 40 43 40 40 40 42
46 47 47 46 46 46 47 47 47 47 48 47 48 48 48 49 49 49 45 45 44 43 37 33 31 32 38 36 34 36 38 43 48 52 47 45 42 39 37 20 27 30 27 24 29 37 39 40 40 41 41 40 43 43
46 46 47 47 47 47 47 47 47 47 47 48 48 48 49 49 50 49 44 44 44 42 34 31 34 37 39 42 40 40 39 50 52 52 45 45 43 48 41 35 37 44 42 31 39 42 44 46 46 46 46 47 46 48
46 46 47 47 47 47 47 47 47 47 47 47 48 48 49 49 50 48 45 44 47 42 36 38 40 41 38 39 35 43 43 46 49 46 43 42 45 46 42 40 42 50 47 34 41 46 46 46 46 46 48 50 52 54
46 46 46 47 47 47 47 47 47 47 48 48 48 48 49 50 50 46 41 46 48 48 42 39 42 42 44 49 40 45 46 50 50 46 45 48 47 44 40 36 44 46 47 45 46 46 44 44 45 46 46 48 51 53
46 46 46 47 47 47 47 47 48 48 48 49 49 49 50 50 47 44 44 50 48 49 42 39 42 49 46 45 45 48 51 52 51 49 48 48 46 41 41 43 44 46 45 46 45 45 42 42 43 44 45 44 46 47
46 46 47 47 47 47 47 47 47 48 48 48 49 49 50 51 50 47 47 49 49 47 45 40 42 46 44 43 45 52 50 51 48 48 46 41 42 39 43 54 52 46 46 46 45 44 45 47 45 45 44 46 46 47
47 46 47 47 47 47 47 47 47 47 48 48 49 49 50 49 48 50 52 50 51 47 42 44 42 43 49 48 45 51 51 47 46 44 41 41 38 45 51 52 52 51 50 48 44 42 43 45 46 44 44 44 46 47
47 46 47 47 47 47 47 47 46 47 48 48 46 47 48 51 50 53 48 44 45 45 46 43 41 43 49 47 41 45 48 43 37 37 39 37 43 51 52 54 54 53 51 49 42 42 42 43 44 45 46 46 49 50
47 46 47 47 47 47 47 46 46 47 47 34 30 33 42 47 46 47 46 42 43 42 45 45 44 46 46 45 45 44 45 39 34 31 34 34 36 50 52 53 54 51 49 49 49 49 48 47 45 46 48 50 51 52
47 47 47 47 47 47 47 45 46 45 38 39 40 42 45 46 47 44 41 42 44 43 46 47 48 48 46 50 45 46 44 37 39 35 35 31 50 52 51 51 52 50 48 48 48 48 47 46 44 46 49 50 53 54
47 46 46 47 47 47 47 46 47 48 46 44 45 44 45 42 37 36 36 38 39 43 48 44 44 47 49 48 45 45 46 39 43 32 35 46 51 52 52 51 51 50 49 49 49 50 50 50 49 50 51 53 53 54
47 46 46 47 47 47 47 46 47 45 42 35 37 38 36 36 33 38 38 40 43 42 42 43 46 48 47 47 47 44 40 38 35 30 40 48 53 52 53 53 52 50 50 49 49 50 51 51 52 52 52 53 53 52
47 46 46 47 47 46 46 46 46 44 40 33 34 35 33 33 35 41 43 43 43 43 43 43 47 48 48 45 46 45 37 40 38 41 49 54 54 54 54 53 52 52 51 50 49 49 50 51 51 51 51 51 52 52
46 46 45 46 46 45 45 44 44 43 37 33 32 32 32 30 32 40 44 41 41 43 43 46 46 46 40 45 40 34 35 35 35 42 49 53 55 56 55 54 54 54 53 51 51 51 51 50 50 50 51 52 52 53
46 42 46 45 44 43 45 43 40 39 35 33 30 29 28 29 32 35 40 41 42 41 44 47 43 39 39 34 38 42 43 41 43 46 52 56 56 55 56 55 53 54 54 54 55 55 54 52 51 53 54 54 52 52
43 44 44 43 43 42 42 43 37 35 34 31 27 26 30 32 33 34 38 41 41 39 41 45 47 41 40 40 43 42 45 48 48 50 53 56 57 56 54 54 55 52 51 52 52 53 52 51 51 49 50 51 51 52
43 46 45 44 43 43 36 37 36 33 31 27 28 29 30 30 33 37 38 39 39 41 43 47 44 41 43 46 48 50 49 46 50 50 53 55 55 54 54 56 55 53 51 50 48 47 48 49 47 44 43 42 41 48
46 46 46 44 45 43 36 33 38 36 32 32 33 31 31 32 34 36 37 38 38 44 47 43 44 45 47 48 51 52 52 49 47 48 49 51 52 54 55 54 52 51 51 48 45 44 46 47 47 45 47 47 46 44
43 43 44 46 45 44 38 32 32 33 32 31 33 34 34 34 33 33 36 37 38 38 37 39 43 43 46 48 50 52 52 50 49 47 50 52 52 50 54 56 58 51 48 47 48 48 46 46 46 46 46 45 47 52
42 43 44 44 42 40 39 35 32 32 32 30 29 31 31 31 31 32 35 35 36 36 37 38 40 41 43 48 52 54 54 54 51 49 51 49 49 48 52 52 51 51 51 48 45 46 47 48 48 46 47 49 50 50
41 41 39 39 36 37 35 34 33 31 29 30 31 32 32 33 34 37 35 35 35 36 37 39 43 48 47 47 53 53 54 52 48 47 50 48 47 49 47 49 51 49 47 50 49 48 48 48 49 50 51 50 50 49
42 40 36 35 34 32 31 33 33 33 30 28 28 30 31 33 38 38 34 33 36 37 39 42 44 43 44 49 47 50 50 50 48 50 50 48 47 46 48 48 47 46 47 48 47 47 49 50 50 50 50 48 46 43
37 32 35 33 33 30 29 29 30 30 29 29 28 30 33 36 38 38 37 45 41 42 46 48 49 48 42 41 43 48 51 48 46 46 48 47 48 46 47 46 47 48 46 45 47 48 50 50 49 48 47 47 44 43
32 32 33 29 28 28 28 27 28 28 27 29 29 31 33 34 34 36 43 47 49 49 48 48 46 46 46 46 43 50 49 46 46 43 45 44 45 51 52 47 47 48 47 47 47 48 49 49 48 47 42 38 39 40
30 28 30 31 30 29 29 29 31 30 30 29 30 30 35 34 36 47 52 52 52 52 49 48 46 47 45 49 46 47 47 47 46 47 46 45 47 47 47 44 44 47 46 46 47 48 48 48 46 44 41 39 40 42
30 29 27 30 29 29 30 31 30 30 30 30 32 35 35 39 42 48 51 50 52 48 47 47 46 46 45 47 48 49 49 47 47 45 45 45 47 47 48 48 47 46 46 46 46 46 46 46 45 45 44 42 41 41
31 30 29 28 29 28 28 30 30 29 30 34 35 38 41 42 44 44 46 49 47 44 44 46 49 48 50 49 49 50 49 47 46 46 44 42 44 47 48 46 46 46 45 46 45 46 46 46 45 46 46 45 43 42
29 29 29 29 28 28 28 28 29 30 32 34 37 38 39 39 41 45 44 44 44 43 44 45 47 47 50 50 48 48 48 49 48 47 43 45 45 47 46 46 45 45 45 45 46 47 47 47 47 46 45 43 42 41
29 28 28 28 27 28 27 28 29 32 34 34 35 35 35 36 38 41 43 42 42 42 42 42 43 44 46 48 50 48 47 46 46 48 49 49 46 46 46 46 45 45 45 45 45 45 46 46 45 46 46 45 47 45
29 29 28 28 28 28 30 28 27 30 32 33 33 34 35 35 37 40 40 41 40 42 45 44 43 45 49 50 49 52 52 48 48 47 46 44 45 47 47 45 45 45 45 44 45 45 46 45 44 44 45 44 43 43
33 30 30 29 29 30 30 31 32 32 32 32 33 33 33 33 34 37 43 43 43 42 43 44 47 49 52 52 51 51 49 48 48 47 47 47 47 47 45 44 45 45 44 43 43 44 45 44 43 43 44 45 45 45
Wind_Speed
12 12 13 14 15 17 17 17 18 18 18 18 17 16 14 15 14 10 12 10 10 15 27 33 23 19 18 18 19 13 18 15 22 25 28 29 30 28 34 35 36 27 28 26 27 26 26 5 7 13 5 8 8 10
13 13 13 14 15 17 18 18 19 19 19 19 18 15 14 12 14 10 14 5 3 8 22 35 37 36 36 29 23 20 17 13 7 10 7 6 23 26 30 34 30 32 28 26 23 28 10 5 2 7 5 2 3 4
14 14 14 15 15 16 18 19 20 20 20 20 19 18 16 14 13 12 15 12 10 13 28 25 22 22 26 30 30 26 20 12 5 6 8 9 13 16 20 31 18 14 32 35 17 6 7 6 4 2 1 2 1 3
14 16 15 15 16 18 18 20 20 21 21 21 21 20 19 17 16 14 15 14 8 6 9 12 13 9 10 18 26 24 26 2 5 6 5 16 24 16 19 9 5 1 18 22 14 15 8 11 10 8 6 5 5 6
16 17 17 18 18 18 19 20 21 22 23 23 23 22 21 20 19 17 19 18 16 11 11 19 32 25 20 19 24 18 17 10 1 2 8 25 29 33 20 18 19 13 33 19 12 13 16 13 9 10 11 11 12 13
17 17 17 18 20 20 19 20 23 23 24 26 25 25 23 20 15 8 5 11 16 10 4 8 12 16 8 7 13 11 13 7 3 3 13 19 40 32 19 9 16 18 15 10 14 14 16 14 13 14 16 19 19 19
19 17 17 17 19 21 21 21 23 24 26 27 27 26 24 19 11 8 6 2 8 10 4 8 7 4 5 15 12 13 11 5 8 10 15 32 30 10 16 4 18 24 12 16 13 13 14 14 12 13 13 17 15 17
20 19 17 17 18 22 21 21 23 25 27 30 29 25 23 8 5 8 12 15 15 5 5 6 9 5 6 11 9 6 4 6 10 9 16 11 21 13 4 19 23 11 21 17 12 11 14 9 10 12 11 12 11 12
20 19 17 17 18 19 20 20 23 26 30 34 30 20 3 5 5 3 5 15 8 4 4 6 6 4 9 13 6 4 2 7 9 12 9 4 8 4 11 13 7 16 14 12 9 11 11 12 8 6 6 8 12 10
20 19 17 16 17 18 18 19 22 27 34 37 17 5 4 2 8 9 4 5 6 5 6 7 15 10 7 7 6 6 6 7 10 9 4 3 5 7 9 9 10 12 10 10 5 10 7 9 6 5 5 3 14 12
20 17 17 15 16 16 17 17 21 26 24 6 6 3 10 5 4 5 4 6 7 5 8 9 10 6 8 4 3 6 5 6 6 3 3 3 2 6 8 11 12 12 12 11 7 4 3 4 3 6 8 9 11 12
18 17 15 15 15 15 15 15 18 12 11 12 12 12 6 4 7 6 1 4 7 4 7 7 7 8 7 2 6 6 5 5 1 8 1 3 6 8 10 11 12 12 12 11 9 5 2 2 3 6 9 12 12 13
18 16 15 14 14 15 15 13 15 14 20 4 3 4 4 4 4 4 3 4 4 6 5 14 14 5 4 3 2 1 13 7 8 10 3 6 12 9 8 7 9 9 9 10 9 8 5 4 4 9 10 12 14 14
15 15 14 14 14 15 18 13 9 11 6 5 4 5 5 5 5 4 8 8 6 10 13 15 13 4 2 3 3 6 5 4 4 5 9 17 14 11 8 6 6 7 6 7 7 8 9 10 11 12 13 13 13 12
13 13 15 16 18 7 3 8 11 8 5 5 4 5 8 7 6 3 2 5 9 12 13 10 8 6 4 2 2 8 3 7 6 7 10 13 11 10 8 6 6 5 3 1 2 6 8 9 10 10 11 11 10 9
10 12 14 9 7 3 9 13 11 9 4 5 7 8 12 12 2 4 4 9 7 11 12 5 5 5 7 8 7 4 1 4 11 16 15 12 11 10 8 9 9 8 5 3 1 5 5 7 9 9 9 8 6 5
7 4 10 6 3 12 14 4 6 5 6 5 8 13 13 11 10 8 6 7 9 12 7 5 4 1 8 5 5 5 4 10 14 11 13 11 10 10 10 10 10 9 9 7 8 16 11 7 6 8 7 4 6 3
6 7 9 3 6 8 6 7 5 6 8 11 11 13 10 9 9 7 4 7 8 7 7 3 6 3 5 8 12 8 12 13 12 9 10 10 10 10 9 8 8 7 9 8 9 8 6 4 1 6 2 1 5 6
8 1 1 3 4 4 3 5 6 6 10 11 9 10 10 10 8 9 5 8 7 7 6 4 3 2 3 5 9 12 9 5 8 5 9 8 8 7 6 4 2 3 5 4 10 11 9 5 3 4 6 8 9 5
11 13 12 7 6 4 4 5 5 6 7 5 5 9 9 10 8 7 10 7 7 3 4 3 3 5 9 7 7 5 10 4 2 8 8 9 8 6 3 2 2 3 5 4 4 3 2 1 3 4 6 8 9 5
7 5 8 9 6 5 6 4 6 7 8 8 8 6 8 8 10 11 12 10 8 9 8 3 5 1 4 2 4 2 1 2 5 8 7 4 2 7 9 3 2 4 5 6 11 7 4 6 8 9 8 8 6 14
3 7 4 8 6 5 6 7 8 11 6 9 10 9 9 9 9 11 11 12 12 9 9 6 4 2 1 1 3 1 6 5 8 7 3 2 1 2 4 4 5 1 7 5 4 6 6 10 10 9 8 12 9 7
2 4 5 8 5 4 7 7 6 7 5 4 5 5 8 5 5 3 6 11 10 8 8 9 6 3 5 3 4 0 4 5 8 3 5 3 4 4 8 6 3 4 9 3 4 6 8 4 9 10 9 8 9 9
2 3 4 5 10 5 6 8 7 6 5 9 7 8 5 4 6 4 10 7 5 5 6 6 6 6 6 1 4 6 10 8 9 4 8 2 6 5 2 6 5 5 8 4 5 5 7 8 7 9 11 12 14 15
2 5 5 6 6 6 5 9 12 8 7 9 8 7 4 4 4 5 5 1 4 5 4 3 6 11 11 12 12 8 9 13 12 9 6 4 8 6 6 6 6 5 2 5 5 6 9 10 9 12 12 12 12 12
4 7 7 8 7 6 7 4 7 9 9 6 7 5 3 4 5 2 3 2 4 3 4 6 5 4 6 3 8 13 12 10 5 3 5 4 5 15 12 6 8 7 4 5 6 9 10 13 12 13 14 15 11 9
5 7 8 7 6 5 6 8 5 4 5 6 6 6 3 5 3 3 4 4 2 1 4 4 6 6 5 3 3 2 3 5 4 1 4 2 3 3 6 3 8 9 6 7 8 10 13 14 14 14 14 13 8 5
9 5 12 11 10 9 9 8 8 7 8 5 4 4 3 3 2 3 3 3 4 9 5 6 3 6 4 1 5 6 8 8 7 7 4 4 2 5 10 11 11 8 10 9 10 12 13 13 11 11 12 11 9 7
9 8 9 11 10 9 9 9 9 5 1 2 5 1 1 3 4 4 4 6 8 8 3 3 2 2 4 7 6 6 4 8 10 9 10 9 10 10 10 11 11 10 11 11 16 13 11 10 9 10 9 9 8 7
12 11 9 9 14 11 12 9 9 7 3 2 2 4 6 4 2 6 4 5 6 6 5 7 7 7 7 6 7 9 8 8 8 14 11 4 8 14 12 10 10 11 11 11 12 11 8 8 6 5 5 6 7 6
6 9 11 12 10 13 14 10 10 7 5 8 9 8 6 2 3 7 10 10 7 7 7 6 5 5 5 8 9 12 10 8 5 6 3 12 15 14 11 10 11 11 11 11 12 12 11 9 7 5 5 2 4 5
8 9 10 10 11 12 7 9 12 11 10 11 12 9 10 10 8 6 9 8 6 8 2 3 4 3 2 3 2 9 6 9 11 8 3 10 14 12 11 10 11 11 10 10 10 10 8 6 6 4 5 3 3 2
7 9 10 10 6 5 8 7 7 9 10 11 11 11 12 12 11 4 4 6 8 4 3 3 1 4 6 4 6 8 3 13 15 12 11 14 14 10 10 11 11 11 11 9 9 9 7 4 5 4 2 2 1 1
Wind_Direction
316 320 319 320 326 330 332 329 332 333 332 333 334 332 326 321 324 322 301 280 224 268 283 281 281 279 278 257 251 279 308 263 246 257 247 247 246 243 239 231 219 202 226 221 228 231 237 221 203 241 81 66 9 346
305 309 310 310 316 319 322 324 325 327 328 328 328 327 325 317 308 312 283 316 342 238 270 298 286 274 263 262 272 269 265 280 307 288 340 308 305 256 232 231 222 203 213 218 224 227 102 116 46 64 36 72 24 333
293 297 303 306 308 311 314 316 319 320 322 322 321 318 317 315 307 289 286 291 285 269 281 261 262 263 223 231 236 253 246 241 251 320 346 301 289 278 277 229 208 244 223 212 216 128 104 80 100 65 281 275 293 249
282 289 295 301 305 307 309 311 314 316 317 317 316 312 309 306 299 286 271 266 262 285 282 304 313 291 250 228 206 226 247 127 338 318 331 288 276 329 290 280 159 165 264 207 128 112 130 82 61 64 79 109 114 104
275 285 292 296 300 303 306 309 311 313 313 312 311 308 305 304 300 287 266 247 236 247 310 301 304 282 245 236 237 214 222 197 42 320 247 270 277 272 263 245 149 126 265 182 119 118 87 101 92 85 97 99 99 104
270 276 281 290 299 302 302 306 309 310 310 309 307 305 302 301 305 290 278 184 197 210 285 292 338 289 283 263 192 195 175 175 154 230 262 258 255 262 283 160 97 53 14 66 111 94 106 109 112 111 107 108 105 103
262 268 276 285 293 299 301 305 307 309 308 305 304 302 299 297 254 219 346 44 163 140 245 283 270 227 286 147 132 144 166 203 212 227 232 253 272 261 287 11 99 122 121 80 96 116 122 126 119 118 111 111 108 109
260 265 272 283 293 298 300 306 309 309 309 304 302 305 306 287 238 261 259 182 168 196 231 267 268 149 186 162 167 138 164 216 229 233 268 256 269 237 78 45 0 58 88 80 72 76 90 78 112 122 126 117 118 118
256 264 271 278 289 295 300 308 311 312 308 301 301 308 259 218 219 45 81 148 167 228 273 257 283 20 301 273 134 99 147 248 225 213 229 265 254 38 30 62 357 24 39 39 65 73 109 123 119 137 144 161 131 119
251 258 264 274 285 292 301 308 314 312 305 300 297 204 204 110 130 128 132 149 196 227 233 257 278 265 244 252 187 115 218 244 186 199 155 252 72 72 57 52 41 35 28 25 33 92 93 104 113 92 65 59 116 124
247 254 262 272 282 291 299 312 316 316 296 312 323 323 345 139 238 216 223 187 197 238 210 237 254 274 279 321 307 137 251 259 151 135 166 150 190 75 49 50 44 38 40 43 43 56 49 63 43 112 114 110 122 131
245 250 257 268 279 287 295 309 318 305 338 316 298 297 296 256 225 242 156 333 248 295 316 319 312 290 278 289 228 219 269 216 355 172 208 202 105 86 66 53 45 39 38 40 36 45 61 150 192 145 143 133 123 126
240 247 256 268 277 285 290 298 305 292 296 211 223 245 227 251 262 239 241 219 268 289 298 325 329 292 317 292 325 282 223 105 224 203 102 117 131 112 85 68 58 47 50 45 48 53 69 94 125 135 132 128 134 133
235 246 257 268 274 279 284 281 287 304 278 254 220 264 249 256 239 197 256 279 257 268 294 310 309 275 235 285 225 274 300 251 143 180 113 135 123 104 86 67 54 41 38 59 68 79 91 102 111 119 123 125 129 128
232 251 265 268 263 259 266 282 284 265 265 259 228 245 233 262 298 110 228 289 262 260 273 293 284 256 232 257 82 285 343 351 341 95 154 106 105 99 84 62 51 42 22 111 110 111 114 116 114 113 116 111 111 115
229 273 249 181 146 270 294 286 247 236 244 242 244 248 254 265 312 169 224 270 295 288 286 235 247 234 211 180 243 165 210 334 77 84 109 116 93 87 84 76 64 50 19 48 145 145 137 135 119 119 115 117 122 126
203 249 148 140 307 287 273 256 216 229 249 236 236 229 261 278 284 313 305 253 270 286 292 282 253 332 303 265 90 275 178 108 96 90 69 79 95 104 98 86 75 62 63 72 43 25 32 70 84 86 78 38 17 106
221 146 153 128 317 284 193 213 240 239 240 244 255 258 252 261 285 280 222 252 269 288 314 294 298 330 335 345 9 35 58 62 65 85 100 104 112 119 109 94 74 83 92 83 91 81 50 357 179 119 152 135 233 195
226 1 150 61 334 301 250 218 239 262 243 258 257 267 270 274 277 279 240 267 268 273 282 282 303 334 12 351 347 354 350 85 98 102 118 122 130 118 107 105 88 92 93 131 152 142 128 79 52 359 21 4 329 187
249 272 268 260 213 246 233 224 205 258 272 319 256 261 263 260 266 236 238 233 239 216 227 223 166 238 176 229 254 308 318 348 241 106 124 140 133 130 174 214 120 161 202 161 177 284 110 232 95 344 25 349 310 336
229 197 151 179 195 248 289 262 234 264 291 279 281 262 265 254 230 238 234 230 227 234 246 188 153 16 36 7 286 294 298 63 115 109 123 102 180 202 139 126 260 312 300 251 150 179 219 359 354 352 340 311 4 72
121 163 185 191 222 225 256 249 268 330 280 267 284 258 262 251 229 220 224 225 233 236 233 262 228 278 150 14 351 182 117 120 87 103 129 191 246 6 65 184 143 340 335 358 348 0 10 29 0 331 7 44 45 45
233 204 215 200 225 227 259 234 243 239 243 253 218 229 228 219 224 140 231 226 231 232 186 207 208 242 292 312 312 195 167 162 129 128 280 232 102 105 89 101 135 184 233 93 25 25 45 24 55 56 67 76 81 73
202 228 227 214 207 249 231 218 217 260 236 231 249 245 235 202 157 239 245 232 216 159 181 197 220 227 209 236 229 184 177 175 139 209 265 269 134 128 147 157 151 50 35 53 60 77 81 77 104 97 99 106 110 108
181 239 193 236 233 224 240 225 221 233 235 219 230 239 200 170 225 229 236 71 190 144 164 203 256 255 234 205 199 162 160 173 190 206 237 163 210 151 145 102 69 59 69 104 94 96 102 108 114 115 117 119 106 85
214 216 203 206 211 208 209 231 211 219 234 229 232 261 197 225 241 228 130 97 96 109 171 198 229 256 296 277 172 163 188 213 217 213 162 240 238 121 225 165 157 112 87 102 121 124 128 126 131 126 117 113 118 124
238 229 201 240 265 209 249 261 277 238 232 224 241 204 184 232 220 97 111 77 95 336 326 253 254 205 199 295 306 7 86 155 214 37 110 259 254 71 111 139 76 106 117 108 118 124 128 137 136 140 140 144 143 138
235 250 228 209 217 234 256 276 202 216 228 226 250 201 276 10 74 129 151 149 289 284 281 249 232 253 241 216 194 181 196 204 183 215 187 200 113 98 81 86 99 76 101 106 126 130 129 132 139 145 147 147 165 176
227 229 223 227 215 215 227 232 243 224 250 199 261 237 113 110 121 144 164 178 243 264 238 261 214 240 228 200 212 235 234 209 207 199 217 190 162 122 116 130 144 133 122 106 65 96 122 136 149 148 151 152 157 167
233 228 219 219 219 219 229 226 251 268 210 227 226 226 223 197 139 150 247 206 241 245 230 247 183 188 181 209 212 211 210 229 208 206 196 207 184 133 152 155 140 140 140 139 135 124 112 139 133 152 159 157 174 184
221 209 219 235 225 228 244 256 229 253 255 249 242 249 270 302 259 224 211 246 229 251 258 240 228 224 196 164 218 216 197 173 182 84 67 266 142 144 148 144 148 147 149 141 144 150 157 176 179 176 172 170 111 291
216 219 209 223 233 236 249 228 229 234 236 233 239 239 240 246 247 247 217 211 236 249 161 292 297 312 170 207 235 95 286 176 150 178 186 135 126 137 142 147 149 147 146 150 162 154 173 200 186 186 122 136 150 166
269 224 220 243 254 221 202 216 209 228 244 247 245 240 242 238 235 232 130 219 238 257 300 313 256 218 142 253 151 128 154 99 81 74 70 100 112 129 140 146 140 146 154 153 142 149 180 179 148 150 147 137 196 123